Meteo Giornale » Osservazioni meteo Tailandia » Don Muang

ore: 16:30 - Osservazioni Meteo Don Muang
Lat. 13° 55' N Lon. 100° 36' E Alt. 4 metri s.l.m.

nuvoloso_temporali

30 °C

Temporale

Temp. 24 Ore

26 °C

33 °C

Ovest/Nord-Ovest

14.8 Km/h

Dew point 25 °C

Umidità 74 %

Visibilità  5 Km

Il sole sorge alle ore 06:05

Il sole tramonta alle ore 18:29

Data e Ora Cielo e Fenomeni T °C DP °C Um. % Pres. hPa Vis. km Vento km/h
Oggi h: 16:30 nuvoloso_temporali Temporale 30 25 74 1007 5 O/NO 14.8
Oggi h: 16:00 nuvoloso Nuvoloso 33 23 55 1007 10 N 5.5
Oggi h: 15:30 poco_nuvoloso Poco Nuvoloso 33 23 55 1007 10 O 13
Oggi h: 15:00 poco_nuvoloso Poco Nuvoloso 33 23 55 1008 10 O/NO 13
Oggi h: 14:30 poco_nuvoloso Poco Nuvoloso 33 22 52 1008 10 O/SO 11.1
Oggi h: 14:00 poco_nuvoloso Poco Nuvoloso 32 23 59 1008 10 O/SO 13
Oggi h: 13:30 poco_nuvoloso Poco Nuvoloso 32 23 59 1009 10 SO 13
Oggi h: 13:00 poco_nuvoloso Poco Nuvoloso 32 23 59 1009 10 O/SO 13
Oggi h: 12:30 poco_nuvoloso Poco Nuvoloso 32 23 59 1010 10 SO 11.1
Oggi h: 12:00 poco_nuvoloso Poco Nuvoloso 32 24 62 1011 10 SO 13
Oggi h: 11:30 poco_nuvoloso Poco Nuvoloso 32 24 62 1011 10 SO 11.1
Oggi h: 11:00 poco_nuvoloso Poco Nuvoloso 31 24 66 1011 10 SO 11.1
Oggi h: 10:30 poco_nuvoloso Poco Nuvoloso 30 24 70 1011 10 S/SO 9.3
Oggi h: 10:00 poco_nuvoloso Poco Nuvoloso 30 24 70 1011 10 N 5.5
Oggi h: 09:30 poco_nuvoloso Poco Nuvoloso 29 24 74 1011 10 S/SO 7.4
Oggi h: 09:00 poco_nuvoloso Poco Nuvoloso 28 24 78 1011 10 S/SO 7.4
Oggi h: 08:30 poco_nuvoloso Poco Nuvoloso 28 24 78 1011 10 S/SO 7.4
Oggi h: 08:00 poco_nuvoloso Poco Nuvoloso 28 24 78 1010 10 N 0
Oggi h: 07:30 poco_nuvoloso Poco Nuvoloso 27 24 83 1010 10 N 1.8
Oggi h: 07:00 poco_nuvoloso Poco Nuvoloso 27 24 83 1009 10 S/SO 7.4
Oggi h: 06:30 poco_nuvoloso Poco Nuvoloso 26 24 88 1009 10 N 5.5
Oggi h: 06:00 poco_nuvoloso Poco Nuvoloso 26 24 88 1009 10 N 5.5
Oggi h: 05:30 poco_nuvoloso Poco Nuvoloso 26 24 88 1009 10 N 3.7
Oggi h: 05:00 poco_nuvoloso Poco Nuvoloso 26 24 88 1009 10 N 5.5
Oggi h: 04:30 poco_nuvoloso Poco Nuvoloso 26 24 88 1009 10 N 3.7
Oggi h: 04:00 poco_nuvoloso Poco Nuvoloso 27 24 83 1009 10 N 3.7
Oggi h: 03:30 poco_nuvoloso Poco Nuvoloso 27 23 78 1009 10 N 5.5
Oggi h: 03:00 poco_nuvoloso Poco Nuvoloso 27 23 78 1009 10 N 5.5
Oggi h: 02:30 poco_nuvoloso Poco Nuvoloso 27 23 78 1009 10 O 7.4
Oggi h: 02:00 poco_nuvoloso Poco Nuvoloso 27 23 78 1009 10 O 7.4
Oggi h: 01:30 poco_nuvoloso Poco Nuvoloso 27 24 83 1010 10 O/SO 7.4
Oggi h: 01:00 poco_nuvoloso Poco Nuvoloso 27 24 83 1010 10 N 5.5
Oggi h: 00:30 poco_nuvoloso Poco Nuvoloso 27 24 83 1010 10 O 9.3
Oggi h: 00:00 coperto_pioggia Pioggia 27 24 83 1010 10 O 9.3
Ieri h: 23:30 poco_nuvoloso Poco Nuvoloso 27 24 83 1011 10 O 9.3
Ieri h: 23:00 poco_nuvoloso Poco Nuvoloso 27 24 83 1011 10 O 7.4
Ieri h: 22:30 poco_nuvoloso Poco Nuvoloso 27 24 83 1011 10 O/NO 7.4
Ieri h: 22:00 poco_nuvoloso Poco Nuvoloso 27 24 83 1011 10 O 7.4
Ieri h: 21:30 poco_nuvoloso Poco Nuvoloso 27 24 83 1011 10 N 5.5
Ieri h: 21:00 nuvoloso Nuvoloso 27 24 83 1010 10 O/NO 7.4
Ieri h: 20:30 coperto_pioggia Pioggia 27 25 88 1010 10 O 9.3
Ieri h: 20:00 coperto_pioggia Pioggia 27 24 83 1009 10 O/SO 9.3
Ieri h: 19:30 coperto_pioggia Pioggia 28 24 78 1009 10 O 13
Ieri h: 19:00 coperto_pioggia Pioggia 27 24 83 1008 10 O/SO 11.1
Ieri h: 18:30 coperto_pioggia Pioggia 28 24 78 1008 10 O/SO 13
Ieri h: 18:00 coperto_pioggia Pioggia 28 24 78 1007 10 O 18.5
Ieri h: 17:30 coperto_pioggia Pioggia 29 24 74 1007 10 O 14.8
Ieri h: 17:00 coperto_pioggia Pioggia 30 25 74 1007 10 O 11.1